Location: Chmeln�
(49.6483°N, 14.9871°E)
Time: 09:28:29
(UTC+00:00)

H-2A R/B - Pass Details

Date: 18 September 2020
Orbit: 734 x 836 km, 98.2° (Epoch: 27 October)

Event Time Altitude Azimuth Distance (km) Brightness Sun altitude
Rises 17:34:02 0° 152° (SSE) 3,163 4.8 -5.3°
Reaches altitude 10° 17:36:18 10° 149° (SSE) 2,252 4.1 -5.7°
Maximum altitude 17:41:10 60° 70° (ENE) 866 2.1 -6.5°
Drops below altitude 10° 17:46:10 10° 352° (N) 2,320 4.8 -7.3°
Sets 17:48:32 0° 349° (N) 3,267 5.6 -7.6°
